sat.trackr.live / text

‹ back to catalog

EUTELSAT HOTBIRD 13F

NORAD 54048 · 2022-134A

PAYLOAD ACTIVE UNKNOWN

§ Identity

Operator
Country
EUTE
Launch date
2022-10-15
Launch site
AFETR
Launch vehicle
Mass (kg)
RCS (m²)

Purposes: comms

External: N2YO · Heavens-Above · Gunter

§ Orbital elements

Epoch: 2026-05-24T19:53:38.732064Z

Period
1,436.09 min
Inclination
0.0431°
Eccentricity
0.0001781
Mean motion
1.00271954 rev/d
Perigee alt
35,779.0 km
Apogee alt
35,794.1 km
Semi-major
42,164.7 km
B*
0.0000e+0
RAAN
294.0197°
Arg perigee
67.9908°
Mean anomaly
191.8193°
Rev number
1,314

§ Raw data

EUTELSAT HOTBIRD 13F1 54048U 22134A   26144.82892051  .00000084  00000+0  00000+0 0  99952 54048   0.0431 294.0197 0001781  67.9908 191.8193  1.00271954 13149

JSON: /api/v1/satellites/54048 · /tle

For live sub-satellite position, see the globe view (requires WebGL).

§ Visibility from observer

Set your observer location to see the next 7 days of passes ≥ 10°. The values pass through the URL so the page stays shareable.

No JS? Fill the form by hand. The geolocation button needs JavaScript.